Temperature
16 16 16 16 16 16 16 16 16 16 16 16 15 15 15 15 15 15 15 15 15 15 15 15 15 15 15 15 15 15 15 15 15 15 15 15 15 15 15 15 15 15 15
16 16 16 16 16 16 16 15 15 15 15 15 15 15 15 15 15 15 15 15 15 15 15 15 15 15 15 15 15 15 15 15 15 15 15 15 15 15 15 15 15 15 15
16 16 16 16 16 15 15 15 15 15 15 15 15 15 15 15 15 15 15 15 15 15 15 15 15 15 14 14 14 14 14 14 14 14 14 14 14 14 15 15 15 15 15
16 16 16 15 15 15 15 15 15 15 15 15 15 15 15 15 15 15 15 15 15 15 15 14 14 14 14 14 14 14 14 14 14 14 14 14 14 14 14 15 15 15 15
16 15 15 15 15 15 15 15 15 15 15 15 15 15 15 15 15 14 14 14 14 14 14 14 14 14 14 14 14 14 14 14 14 14 14 14 14 14 14 14 14 14 14
15 15 15 15 15 15 15 15 15 14 15 15 15 14 14 14 14 14 14 14 14 14 14 14 14 14 14 14 14 14 14 14 14 13 13 13 13 14 14 14 14 14 14
15 15 15 15 15 15 14 14 14 14 14 14 14 14 14 14 14 14 14 14 14 14 14 14 14 14 14 14 13 13 13 13 13 13 13 13 13 13 13 13 13 13 13
15 15 15 15 15 14 14 14 14 14 14 14 14 14 14 13 13 13 13 13 13 13 13 13 13 13 13 13 13 13 13 13 13 13 13 13 13 13 13 13 13 13 13
15 15 15 15 15 14 14 14 14 14 14 14 14 14 13 13 13 13 13 13 13 13 13 13 13 13 13 13 13 13 13 13 13 12 13 13 13 13 12 13 13 13 13
15 15 14 14 14 14 14 14 14 14 14 13 13 13 13 13 13 12 12 12 12 12 13 13 12 12 12 12 12 13 13 12 12 12 12 12 12 12 12 12 12 12 12
14 14 14 14 14 14 14 14 14 13 13 13 13 13 13 13 13 12 12 12 12 12 12 12 12 12 12 12 12 12 12 12 12 12 12 12 12 12 12 12 12 12 12
14 14 14 14 14 14 14 14 13 13 13 13 13 13 13 13 13 12 12 12 12 12 12 12 12 12 12 12 12 12 12 12 12 12 12 12 12 12 12 12 12 12 12
14 14 14 14 14 14 14 14 13 13 13 13 13 13 13 13 13 12 12 12 12 11 11 11 11 11 11 12 12 12 12 12 12 12 12 12 12 12 11 11 11 11 12
14 14 14 14 14 14 14 13 13 13 13 13 13 13 12 12 12 12 12 12 12 11 11 11 11 11 11 11 11 11 11 11 11 11 11 11 11 11 11 11 11 11 11
14 14 14 14 14 14 13 13 13 13 13 13 12 12 12 12 12 12 12 12 12 11 11 11 11 11 11 11 11 11 11 11 11 11 11 11 11 11 11 11 11 11 11
13 13 14 13 13 13 13 13 13 13 13 12 12 12 12 12 12 12 12 12 11 11 11 11 10 10 10 10 10 10 11 11 10 10 10 10 11 11 11 11 11 11 11
13 13 13 13 13 13 13 13 13 13 12 12 12 12 12 12 12 12 12 11 11 11 11 11 10 10 10 10 10 10 10 10 10 10 10 10 10 10 10 10 10 10 11
13 13 13 13 13 12 12 12 12 12 12 12 12 12 12 12 12 11 11 11 11 11 11 11 10 10 10 10 10 10 10 10 10 10 10 10 10 10 10 10 10 10 10
13 13 12 12 12 12 12 12 12 12 12 12 12 12 12 11 11 11 11 11 11 10 10 10 10 10 9 9 9 9 9 9 9 9 9 9 9 10 10 10 10 10 10
12 12 12 12 12 12 12 12 12 12 12 11 11 11 11 11 11 11 11 11 10 10 10 10 10 9 9 9 9 9 9 9 9 9 9 9 9 9 9 9 9 9 9
12 12 12 11 11 11 11 11 11 11 11 11 11 11 11 11 11 11 10 10 10 10 10 9 9 9 9 9 9 9 9 8 9 9 9 9 9 9 9 9 9 9 9
12 11 11 11 11 11 11 11 11 11 11 11 11 11 10 10 10 10 10 10 10 10 10 9 9 9 9 9 9 8 8 8 8 8 8 9 8 8 9 8 8 9 8
11 11 11 11 11 11 10 10 10 10 10 10 10 10 10 10 10 10 10 10 10 9 9 9 9 9 9 9 9 8 8 8 8 8 8 8 8 8 8 8 8 8 8
11 11 11 11 10 10 10 10 10 10 10 10 10 10 10 10 10 10 10 10 9 9 9 9 9 9 9 8 8 8 8 8 8 8 8 8 8 8 8 8 8 8 8
11 10 10 10 10 10 10 10 10 10 10 10 10 9 9 9 9 9 9 9 9 9 9 9 9 8 8 8 8 8 8 8 8 8 7 7 8 8 8 8 8 8 8
10 10 10 10 10 10 10 10 9 9 9 9 9 9 9 9 9 9 9 9 9 9 9 8 8 8 8 8 8 8 7 7 7 7 7 7 7 7 7 7 7 7 7
Wind_Speed
2 2 2 3 3 3 4 4 4 4 4 4 5 5 4 4 5 5 5 6 7 7 7 7 7 7 7 7 7 6 6 6 5 4 4 4 4 4 4 3 3 2 2
3 3 2 3 3 4 4 4 4 4 3 4 4 4 4 4 5 5 5 5 7 7 8 8 7 7 6 6 6 6 6 5 5 4 4 4 4 4 3 3 3 3 2
5 4 3 2 3 5 6 5 5 5 4 4 4 4 4 5 5 5 5 5 6 7 8 7 7 7 7 6 6 6 5 5 5 4 4 4 3 3 2 3 3 3 3
7 5 3 3 4 6 5 4 3 4 4 4 3 3 4 4 5 5 5 6 5 5 6 7 7 6 6 6 6 5 5 4 5 5 4 4 4 3 3 2 3 3 3
7 6 4 3 5 4 3 4 3 3 3 3 3 3 3 4 4 5 5 6 6 5 5 5 6 6 6 6 6 6 5 4 4 4 4 3 3 3 3 3 3 3 3
6 6 4 4 5 4 3 3 3 3 2 2 4 5 4 4 5 5 4 5 6 6 7 7 6 6 7 7 6 6 6 5 5 4 4 4 3 3 2 2 2 2 2
6 5 4 3 3 3 3 3 3 3 3 3 4 4 4 5 5 4 4 4 4 5 6 6 6 6 6 7 7 7 6 6 6 6 5 4 3 2 2 2 1 1 2
5 5 4 3 3 3 3 3 3 3 1 2 3 3 2 4 4 4 3 3 3 4 5 5 6 5 6 6 6 7 7 6 5 5 5 5 5 3 2 2 1 1 1
5 5 4 4 3 3 3 3 3 4 2 1 1 3 3 1 1 2 3 3 3 3 3 4 5 5 5 5 5 5 6 5 5 5 6 5 5 4 4 2 0 0 1
4 4 5 4 3 3 3 3 3 2 3 1 1 1 2 3 2 0 2 2 3 3 2 3 4 4 5 5 5 6 5 5 5 5 5 5 5 3 3 3 2 1 1
2 3 4 4 3 3 3 3 3 2 2 2 1 1 1 2 2 2 0 2 2 2 1 2 3 3 3 4 4 5 5 5 5 6 6 6 6 5 3 3 2 1 2
0 1 3 3 3 2 3 2 3 3 2 2 2 2 2 2 1 2 2 1 1 2 2 1 2 2 2 3 3 4 5 5 5 6 6 6 7 6 3 3 3 2 2
1 1 1 2 2 2 2 3 3 2 3 3 2 2 2 2 2 3 3 1 0 1 2 2 1 1 1 2 2 2 3 4 4 5 5 6 6 6 4 4 3 3 2
2 2 1 2 2 2 3 3 2 2 2 2 2 2 2 2 2 3 3 3 1 1 1 2 2 1 1 1 1 1 2 3 3 4 4 5 5 5 5 4 3 3 3
1 2 2 2 2 2 2 3 2 2 2 1 1 1 1 1 2 2 3 4 4 2 2 2 1 2 1 1 0 1 1 2 3 3 4 4 4 4 4 4 3 3 3
1 1 2 2 2 2 2 2 2 2 2 1 1 1 1 0 1 1 2 2 3 3 2 2 2 2 1 1 1 1 1 2 2 2 3 3 3 4 4 4 3 3 3
1 1 2 2 2 2 2 2 2 2 2 1 1 1 1 1 1 1 1 2 2 3 2 2 1 1 1 1 1 1 2 2 2 2 3 3 3 3 3 3 3 3 3
1 1 2 2 2 1 2 2 2 2 3 2 2 2 2 1 1 1 1 2 2 2 3 2 1 1 1 1 1 1 2 2 2 3 3 3 3 3 3 3 4 3 3
1 1 1 2 2 2 2 2 2 2 3 3 3 3 3 2 2 1 2 2 2 2 2 2 1 1 1 1 1 1 2 2 2 3 3 3 3 3 3 3 3 3 3
2 1 1 1 1 1 1 1 2 2 2 2 2 3 3 3 3 3 2 2 2 2 2 2 1 1 0 1 1 0 2 2 2 2 3 3 3 3 3 3 3 3 3
2 2 1 1 0 1 1 1 1 2 2 1 1 2 2 2 3 3 3 3 3 3 2 2 2 1 1 1 1 1 1 2 2 2 1 2 2 2 3 4 4 4 4
1 1 1 1 0 1 0 1 2 1 1 1 1 1 1 1 3 4 4 4 5 4 4 3 2 3 3 3 2 1 1 1 2 2 1 2 1 2 4 4 5 5 5
1 1 1 1 1 1 0 0 1 2 1 1 1 1 1 1 1 2 3 3 4 5 5 5 4 4 4 4 3 2 2 2 3 2 1 2 2 3 4 5 5 5 6
1 1 1 2 1 1 0 0 1 1 1 1 1 2 2 2 2 2 2 1 1 3 4 3 4 5 4 4 5 4 3 2 2 1 1 2 2 3 3 4 6 6 6
1 1 1 2 2 2 1 0 1 1 1 0 1 1 1 2 1 2 3 2 1 2 2 3 3 4 4 4 3 2 1 1 2 2 1 2 2 2 3 3 5 6 7
1 1 1 1 2 2 2 1 2 1 1 0 1 1 1 1 1 1 3 3 2 2 1 1 1 2 1 2 3 3 4 2 2 3 3 2 2 1 2 3 2 4 5
Wind_Direction
124 113 93 90 77 72 69 65 65 65 63 65 76 82 81 85 89 92 96 99 98 99 104 106 107 105 103 103 99 90 82 80 83 79 77 75 75 79 85 86 83 84 97
120 106 98 88 82 86 81 77 75 75 67 70 65 74 82 87 88 93 94 96 93 90 93 96 99 101 101 101 99 89 79 72 74 83 78 79 80 77 85 90 77 80 84
113 108 101 93 89 87 82 78 69 70 68 65 57 59 72 80 86 90 92 86 84 82 85 87 87 90 91 93 95 89 80 71 68 79 75 74 76 77 82 88 82 79 74
112 104 104 102 94 88 83 86 72 70 61 58 54 49 57 69 79 91 87 81 81 80 79 78 76 77 81 82 82 82 80 75 72 70 65 64 62 66 76 81 82 83 83
115 111 105 96 94 84 80 87 72 81 77 63 67 61 52 62 65 79 76 73 76 77 75 73 70 64 69 69 69 66 66 72 71 64 59 59 53 55 64 64 73 79 82
116 112 103 95 94 88 75 84 83 64 75 74 76 62 51 49 61 67 71 70 69 69 68 66 63 56 57 59 57 59 59 58 58 53 53 52 42 49 50 49 64 79 82
119 113 111 105 102 102 101 101 97 78 59 66 74 51 31 37 51 50 51 62 57 60 65 65 63 56 47 48 51 54 57 53 49 43 41 38 34 44 52 62 72 92 93
119 120 120 125 124 117 100 94 102 99 83 59 92 87 34 9 16 35 33 55 52 53 58 60 64 60 46 38 37 45 47 47 44 40 37 36 32 27 51 69 88 106 107
117 120 121 126 129 130 133 130 126 123 128 22 73 117 125 203 323 1 19 36 44 51 50 53 56 54 48 38 33 33 34 33 30 35 35 31 30 25 28 24 46 137 127
114 120 124 126 134 136 142 152 140 130 127 129 352 56 131 146 141 354 351 3 34 49 43 54 48 48 50 43 35 32 32 27 25 25 26 28 22 11 7 14 26 53 83
106 120 128 135 142 146 155 153 138 138 135 140 147 124 87 76 103 135 228 328 355 1 30 64 57 48 51 45 37 35 40 35 28 23 21 20 16 10 12 14 20 44 62
237 143 136 147 153 151 157 159 155 154 152 142 141 144 146 142 163 151 172 219 295 317 353 36 54 42 45 41 37 39 42 37 29 22 18 18 16 15 26 27 24 25 30
233 239 173 173 160 160 151 142 145 151 153 148 159 171 171 176 165 153 149 169 208 315 344 354 350 27 27 38 25 33 37 30 23 15 15 16 19 22 34 33 28 20 8
215 216 189 174 165 150 135 127 131 150 142 155 166 166 168 187 164 159 158 151 130 352 336 290 320 333 342 21 9 26 14 8 8 12 12 12 15 19 21 20 22 13 3
194 187 184 181 177 151 138 133 129 137 132 146 168 153 156 193 178 169 159 156 152 175 257 260 278 286 307 292 339 18 339 347 347 356 359 1 9 13 14 12 9 3 354
205 171 155 158 164 155 147 139 140 144 136 154 149 123 115 181 171 149 160 157 146 158 206 240 236 258 257 300 284 290 282 313 318 342 347 342 350 359 360 356 358 358 357
190 159 161 155 156 165 163 156 164 153 156 172 159 154 187 178 158 155 154 149 142 140 168 257 258 259 226 233 331 305 314 311 296 309 321 330 336 347 357 357 357 1 14
190 175 155 158 163 171 173 173 187 177 177 194 214 196 216 185 173 180 162 161 164 156 155 200 260 271 268 255 275 295 323 313 297 308 308 316 317 323 338 342 342 348 356
126 120 123 147 175 189 194 197 191 191 197 209 210 206 209 181 198 208 183 172 171 150 136 156 211 255 297 333 11 336 330 325 311 308 300 301 306 314 323 331 337 337 337
127 128 133 155 178 188 189 202 193 190 208 223 220 214 210 199 204 206 197 186 159 139 133 143 164 224 262 317 70 332 329 323 309 323 316 310 304 307 306 306 311 318 314
150 152 141 137 153 192 192 178 184 178 180 219 251 232 227 221 213 201 193 179 165 157 155 162 180 192 227 219 224 220 257 301 304 293 304 309 306 300 295 284 284 285 286
153 137 151 160 198 274 43 137 156 161 161 181 239 260 244 232 232 227 216 192 181 175 179 182 205 213 227 220 202 212 209 265 285 274 222 281 292 278 277 266 271 272 271
154 148 182 170 201 269 247 122 139 150 157 191 208 228 256 264 211 206 216 208 210 206 192 188 200 216 218 214 188 198 217 225 244 251 181 268 277 273 277 278 277 272 273
191 194 199 206 209 267 303 109 125 131 143 201 227 219 217 240 210 171 168 166 214 233 222 209 209 220 221 209 198 203 210 223 281 290 178 239 265 269 288 275 276 270 270
211 213 204 199 210 264 284 201 139 129 116 295 299 249 209 216 255 165 151 175 221 271 265 242 249 249 243 227 185 134 135 141 274 272 216 208 251 283 284 278 275 273 265
201 205 215 215 215 250 272 232 153 135 135 304 325 304 281 255 255 161 171 177 210 252 265 350 336 312 283 238 214 196 192 197 229 253 232 198 232 270 298 286 290 281 265
Height
1532 1532 1531 1531 1531 1531 1531 1531 1531 1530 1530 1529 1529 1529 1528 1528 1528 1528 1528 1528 1527 1527 1527 1526 1526 1526 1526 1526 1525 1525 1525 1525 1525 1525 1525 1525 1525 1524 1524 1525 1525 1525 1525
1532 1532 1532 1532 1531 1531 1531 1531 1531 1530 1530 1530 1529 1529 1529 1529 1529 1529 1528 1528 1528 1527 1527 1527 1526 1526 1526 1526 1526 1526 1526 1526 1525 1525 1525 1525 1524 1524 1524 1524 1524 1524 1524
1533 1532 1532 1532 1532 1531 1531 1531 1531 1530 1530 1530 1530 1529 1529 1529 1529 1529 1529 1529 1528 1528 1528 1528 1527 1527 1527 1527 1526 1526 1526 1526 1525 1525 1525 1524 1524 1523 1523 1523 1523 1523 1523
1533 1533 1532 1532 1532 1531 1531 1531 1531 1530 1530 1530 1530 1530 1530 1530 1530 1530 1530 1530 1529 1529 1529 1528 1528 1528 1528 1527 1527 1527 1526 1526 1525 1525 1524 1524 1523 1522 1522 1521 1521 1521 1521
1533 1532 1532 1532 1532 1531 1531 1531 1531 1530 1530 1530 1530 1530 1530 1531 1530 1530 1530 1530 1530 1530 1529 1529 1529 1529 1528 1528 1527 1527 1527 1526 1525 1525 1524 1523 1522 1521 1520 1520 1520 1520 1520
1533 1532 1532 1532 1532 1531 1531 1531 1530 1530 1530 1530 1530 1530 1531 1531 1531 1531 1531 1531 1530 1530 1530 1530 1529 1529 1528 1528 1528 1527 1527 1526 1525 1525 1524 1523 1522 1520 1520 1519 1518 1518 1519
1532 1532 1532 1531 1531 1531 1530 1530 1530 1530 1530 1530 1530 1530 1531 1531 1531 1531 1531 1531 1531 1530 1530 1530 1529 1529 1528 1528 1528 1527 1527 1526 1525 1524 1523 1522 1521 1520 1519 1518 1517 1517 1518
1532 1531 1531 1531 1531 1530 1530 1530 1530 1530 1530 1530 1530 1530 1531 1532 1531 1531 1531 1531 1531 1531 1530 1530 1529 1529 1528 1528 1527 1527 1526 1525 1525 1524 1523 1522 1521 1519 1519 1518 1517 1517 1517
1531 1531 1531 1530 1530 1530 1530 1530 1530 1529 1529 1530 1530 1530 1530 1530 1531 1532 1532 1531 1531 1530 1530 1530 1529 1529 1528 1528 1527 1527 1526 1525 1525 1524 1523 1521 1520 1519 1518 1517 1517 1517 1516
1530 1530 1530 1530 1530 1529 1529 1529 1529 1529 1529 1529 1530 1530 1531 1530 1530 1531 1532 1531 1530 1530 1530 1529 1529 1529 1528 1528 1527 1526 1525 1525 1524 1523 1522 1521 1519 1517 1517 1516 1516 1516 1516
1528 1528 1528 1529 1529 1529 1529 1528 1529 1529 1529 1529 1529 1529 1529 1529 1529 1529 1529 1530 1530 1529 1529 1529 1529 1529 1528 1528 1527 1526 1525 1524 1523 1522 1521 1520 1517 1514 1514 1515 1515 1515 1515
1527 1527 1527 1527 1527 1527 1527 1527 1527 1528 1528 1528 1528 1528 1528 1528 1528 1528 1528 1528 1528 1528 1528 1528 1528 1528 1528 1527 1527 1526 1525 1524 1523 1522 1520 1518 1515 1512 1511 1513 1514 1514 1514
1525 1525 1525 1526 1526 1526 1526 1526 1526 1526 1526 1527 1527 1527 1527 1527 1527 1527 1527 1527 1527 1527 1527 1527 1527 1527 1527 1527 1526 1525 1524 1523 1522 1521 1520 1518 1516 1513 1512 1513 1514 1514 1514
1523 1523 1524 1524 1524 1524 1524 1525 1525 1525 1525 1525 1525 1525 1526 1526 1526 1526 1526 1525 1525 1526 1526 1526 1526 1526 1526 1526 1525 1524 1524 1523 1522 1521 1519 1518 1517 1515 1514 1514 1514 1514 1514
1522 1522 1522 1522 1522 1523 1523 1523 1523 1523 1523 1524 1524 1524 1524 1524 1524 1524 1524 1524 1525 1524 1524 1524 1524 1524 1524 1524 1524 1523 1523 1522 1521 1520 1519 1518 1517 1516 1515 1515 1514 1514 1513
1520 1520 1520 1520 1520 1520 1521 1521 1521 1521 1522 1522 1522 1522 1522 1523 1523 1523 1523 1523 1523 1523 1522 1522 1523 1523 1523 1523 1522 1522 1521 1521 1520 1519 1518 1518 1517 1516 1515 1514 1514 1513 1513
1518 1518 1518 1518 1518 1518 1519 1519 1519 1519 1520 1520 1520 1520 1521 1521 1521 1521 1521 1521 1521 1521 1521 1521 1521 1521 1521 1521 1521 1520 1520 1519 1518 1518 1517 1516 1516 1515 1514 1514 1513 1513 1512
1517 1517 1517 1516 1516 1516 1517 1517 1517 1517 1517 1518 1518 1518 1518 1519 1519 1519 1519 1519 1519 1519 1519 1519 1519 1519 1519 1519 1519 1518 1518 1517 1517 1516 1515 1515 1514 1514 1513 1512 1512 1512 1511
1515 1515 1515 1514 1514 1514 1515 1515 1515 1515 1515 1515 1516 1516 1516 1516 1516 1516 1516 1517 1517 1517 1517 1517 1517 1517 1517 1517 1517 1517 1516 1516 1515 1514 1514 1513 1513 1512 1512 1511 1510 1510 1509
1513 1513 1513 1513 1513 1512 1512 1512 1513 1513 1513 1513 1513 1513 1514 1514 1514 1514 1514 1514 1515 1515 1515 1515 1515 1515 1515 1515 1515 1514 1514 1514 1513 1513 1512 1511 1511 1510 1510 1509 1508 1508 1507
1511 1511 1511 1511 1511 1510 1510 1510 1510 1510 1510 1510 1510 1511 1511 1511 1511 1512 1512 1512 1512 1512 1512 1513 1512 1512 1512 1512 1512 1512 1512 1511 1511 1511 1510 1509 1509 1508 1508 1507 1506 1506 1505
1509 1509 1509 1509 1508 1508 1508 1508 1508 1508 1508 1508 1508 1508 1508 1508 1508 1509 1509 1509 1510 1510 1510 1510 1510 1510 1510 1510 1510 1510 1510 1509 1508 1509 1508 1507 1507 1506 1505 1505 1504 1504 1503
1507 1507 1507 1507 1506 1506 1506 1506 1506 1506 1505 1505 1505 1505 1505 1505 1505 1505 1506 1506 1507 1507 1508 1508 1508 1508 1508 1508 1508 1507 1507 1507 1506 1506 1506 1504 1504 1503 1503 1502 1502 1501 1501
1505 1505 1504 1504 1504 1504 1504 1504 1504 1503 1503 1503 1503 1503 1503 1502 1502 1503 1503 1503 1504 1504 1505 1505 1505 1505 1506 1506 1505 1505 1505 1504 1504 1504 1503 1502 1501 1501 1501 1500 1499 1499 1498
1502 1502 1502 1501 1501 1501 1502 1501 1501 1501 1500 1500 1500 1500 1500 1500 1500 1500 1500 1500 1501 1501 1502 1502 1503 1503 1503 1503 1503 1502 1501 1501 1500 1500 1501 1500 1499 1498 1498 1497 1497 1496 1495
1499 1499 1499 1499 1499 1499 1499 1499 1499 1498 1497 1497 1497 1497 1498 1497 1497 1497 1497 1497 1497 1498 1498 1498 1499 1499 1499 1499 1499 1499 1499 1498 1497 1497 1497 1497 1496 1496 1494 1494 1493 1493 1492